Weather History for Blue Canyon, CA

Change the Weather History Date:

Saturday, June 23, 2012

  Actual Average Record
Temperature  
Mean Temperature 47 °F -  
Max Temperature 53 °F 72 °F 87 °F (2006)
Min Temperature 41 °F 54 °F 37 °F (1950)
Degree Days  
Heating Degree Days 18    
Moisture  
Dew Point 40 °F    
Average Humidity 82    
Maximum Humidity 100    
Minimum Humidity 50    
Precipitation  
Precipitation 0.11 in - - ()
Sea Level Pressure  
Sea Level Pressure 29.85 in    
Wind  
Wind Speed 9 mph (South)    
Max Wind Speed 17 mph    
Max Gust Speed 24 mph    
Visibility 6 miles    
Events Fog , Rain    
Averages and records for this station are not official NWS values.
T = Trace of Precipitation, MM = Missing Value Source: NWS Daily Summary

Daily Weather History Graph

Daily Weather History Graph

Search for Another Location

Airport:

Trip Planner

Search our weather history database for the weather conditions in past years. The results will help you decide how hot, cold, wet, or windy it might be!

Date:

Astronomy

Jun. 23, 2012 Rise Set
Actual Time 5:37 AM PDT 8:33 PM PDT
Civil Twilight 5:04 AM PDT 9:05 PM PDT
Nautical Twilight 4:23 AM PDT 9:46 PM PDT
Astronomical Twilight 3:36 AM PDT 10:33 PM PDT
Moon 9:43 AM PDT 11:05 PM PDT
Length of Visible Light 16h 00m
Length of Day
14h 56m
Waxing Crescent, 17% of the Moon is Illuminated
Jun 23
Waxing Crescent
Jun 26
First Quarter
Jul 3
Full
Jul 10
Last Quarter
Jul 18
New

Hourly Weather History & Observations

Time (PDT) Temp. Windchill Dew Point Humidity Pressure Visibility Wind Dir Wind Speed Gust Speed Precip Events Conditions
12:52 AM 46.0 °F 43.1 °F 43.0 °F 89% 29.75 in 10.0 mi SSE 5.8 mph - N/A   Overcast
1:52 AM 46.0 °F 41.9 °F 43.0 °F 89% 29.75 in 10.0 mi South 8.1 mph - N/A   Overcast
2:06 AM 46.4 °F 41.9 °F 42.8 °F 87% 29.88 in 10.0 mi South 9.2 mph - N/A   Overcast
2:19 AM 44.6 °F 39.2 °F 42.8 °F 93% 29.88 in 10.0 mi South 10.4 mph - N/A   Overcast
2:52 AM 45.0 °F 39.7 °F 42.1 °F 90% 29.75 in 5.0 mi South 10.4 mph 19.6 mph N/A   Overcast
3:27 AM 44.6 °F 38.4 °F 42.8 °F 93% 29.86 in 1.8 mi South 12.7 mph 18.4 mph N/A   Overcast
3:32 AM 44.6 °F 39.2 °F 42.8 °F 93% 29.86 in 3.0 mi SSE 10.4 mph 18.4 mph N/A   Overcast
3:40 AM 44.6 °F 39.2 °F 42.8 °F 93% 29.86 in 1.8 mi South 10.4 mph - N/A   Overcast
3:52 AM 44.1 °F 38.1 °F 42.1 °F 93% 29.75 in 4.0 mi South 11.5 mph - N/A   Overcast
4:11 AM 44.6 °F 39.7 °F 42.8 °F 93% 29.86 in 1.5 mi South 9.2 mph - 0.00 in Rain Light Rain
4:14 AM 44.6 °F 39.7 °F 42.8 °F 93% 29.86 in 0.8 mi South 9.2 mph - 0.00 in Rain Light Rain
4:26 AM 44.6 °F 38.8 °F 42.8 °F 93% 29.86 in 0.2 mi South 11.5 mph - 0.00 in Fog , Rain Light Rain
4:52 AM 44.1 °F 39.0 °F 43.0 °F 96% 29.75 in 0.2 mi South 9.2 mph - 0.02 in Fog , Rain Light Rain
5:05 AM 44.6 °F 38.4 °F 42.8 °F 93% 29.86 in 0.5 mi South 12.7 mph 18.4 mph 0.02 in Fog , Rain Light Rain
5:13 AM 44.6 °F 38.8 °F 42.8 °F 93% 29.86 in 0.2 mi South 11.5 mph - 0.03 in Fog , Rain Light Rain
5:21 AM 44.6 °F 39.2 °F 42.8 °F 93% 29.86 in 0.5 mi South 10.4 mph - 0.04 in Fog , Rain Light Rain
5:52 AM 44.1 °F 37.4 °F 43.0 °F 96% 29.75 in 0.5 mi South 13.8 mph 20.7 mph 0.06 in Fog , Rain Light Rain
6:10 AM 42.8 °F 35.8 °F 42.8 °F 100% 29.86 in 0.2 mi South 13.8 mph 19.6 mph 0.00 in Fog , Rain Light Rain
6:52 AM 44.1 °F 38.1 °F 42.1 °F 93% 29.76 in 0.2 mi South 11.5 mph 18.4 mph 0.02 in Fog Fog
7:27 AM 42.8 °F 37.0 °F 41.0 °F 93% 29.87 in 0.5 mi South 10.4 mph - 0.00 in Fog Fog
7:41 AM 42.8 °F 37.5 °F 39.2 °F 87% 29.88 in 2.5 mi SW 9.2 mph - 0.00 in   Overcast
7:48 AM 41.0 °F 35.2 °F 39.2 °F 93% 29.88 in 10.0 mi SSW 9.2 mph 17.3 mph 0.00 in   Overcast
7:52 AM 41.0 °F 35.8 °F 39.9 °F 96% 29.79 in 10.0 mi SSW 8.1 mph 17.3 mph 0.00 in   Overcast
8:04 AM 41.0 °F 37.1 °F 39.2 °F 93% 29.89 in 1.5 mi SW 5.8 mph - N/A   Overcast
8:06 AM 41.0 °F 37.1 °F 39.2 °F 93% 29.89 in 0.8 mi SW 5.8 mph - N/A   Overcast
8:16 AM 42.8 °F 39.3 °F 39.2 °F 87% 29.89 in 0.2 mi SW 5.8 mph - N/A Fog Fog
8:52 AM 42.1 °F 39.2 °F 41.0 °F 96% 29.81 in 0.2 mi South 4.6 mph - 0.01 in Fog Fog
9:13 AM 42.8 °F 37.5 °F 41.0 °F 93% 29.90 in 1.2 mi South 9.2 mph - N/A   Overcast
9:16 AM 42.8 °F 37.5 °F 41.0 °F 93% 29.90 in 2.0 mi SSE 9.2 mph - N/A   Overcast
9:22 AM 42.8 °F 38.0 °F 39.2 °F 87% 29.90 in 7.0 mi SSE 8.1 mph - N/A   Overcast
9:40 AM 42.8 °F 38.0 °F 39.2 °F 87% 29.90 in 10.0 mi SSE 8.1 mph - N/A   Overcast
9:52 AM 42.1 °F 37.7 °F 37.9 °F 85% 29.82 in 10.0 mi Variable 6.9 mph - N/A   Overcast
10:52 AM 46.0 °F 41.0 °F 39.9 °F 79% 29.82 in 10.0 mi South 10.4 mph - N/A   Overcast
11:34 AM 46.4 °F 41.9 °F 41.0 °F 81% 29.92 in 10.0 mi SSE 9.2 mph - N/A   Mostly Cloudy
11:52 AM 48.0 °F - 41.0 °F 77% 29.83 in 10.0 mi South 10.4 mph 18.4 mph N/A   Mostly Cloudy
12:13 PM 48.2 °F - 41.0 °F 76% 29.93 in 10.0 mi South 10.4 mph - N/A   Mostly Cloudy
12:34 PM 48.2 °F - 39.2 °F 71% 29.93 in 10.0 mi South 12.7 mph 18.4 mph N/A   Mostly Cloudy
12:52 PM 50.0 °F - 39.0 °F 66% 29.83 in 10.0 mi SSW 12.7 mph 19.6 mph N/A   Mostly Cloudy
1:52 PM 50.0 °F - 39.9 °F 68% 29.84 in 10.0 mi SSE 12.7 mph 18.4 mph N/A   Mostly Cloudy
2:52 PM 53.1 °F - 39.9 °F 61% 29.83 in 10.0 mi South 13.8 mph 20.7 mph N/A   Mostly Cloudy
3:13 PM 51.8 °F - 39.2 °F 62% 29.95 in 10.0 mi SSW 16.1 mph 23.0 mph N/A   Mostly Cloudy
3:23 PM 51.8 °F - 39.2 °F 62% 29.95 in 10.0 mi South 17.3 mph 24.2 mph N/A   Mostly Cloudy
3:52 PM 51.1 °F - 39.0 °F 63% 29.84 in 10.0 mi South 15.0 mph 19.6 mph N/A   Scattered Clouds
4:52 PM 52.0 °F - 37.0 °F 57% 29.84 in 10.0 mi South 10.4 mph - N/A   Partly Cloudy
5:52 PM 52.0 °F - 35.1 °F 53% 29.83 in 10.0 mi SSW 12.7 mph 16.1 mph N/A   Clear
6:52 PM 50.0 °F - 32.0 °F 50% 29.85 in 10.0 mi South 9.2 mph - N/A   Clear
7:52 PM 48.0 °F - 32.0 °F 54% 29.87 in 10.0 mi South 5.8 mph - N/A   Clear
8:52 PM 46.0 °F 43.1 °F 32.0 °F 58% 29.88 in 10.0 mi South 5.8 mph - N/A   Clear
9:52 PM 44.1 °F 41.5 °F 33.1 °F 65% 29.90 in 10.0 mi South 4.6 mph - N/A   Clear
10:52 PM 43.0 °F - 34.0 °F 71% 29.88 in 10.0 mi Calm Calm - N/A   Clear
11:52 PM 41.0 °F 39.0 °F 34.0 °F 76% 29.88 in 10.0 mi SE 3.5 mph - N/A   Clear